Time,TemperatureF,DewpointF,PressureIn,WindDirection,WindDirectionDegrees,WindSpeedMPH,WindSpeedGustMPH,Humidity,HourlyPrecipIn,Conditions,Clouds,dailyrainin,SoftwareType,DateUTC
2014-07-24 00:07:00,62.1,61.5,29.98,NNW,337,0.0,-999.0,98,-99.99,,,0.00,Acu-Link.com,2014-07-24 04:07:00,
2014-07-24 00:23:00,61.3,60.8,29.98,WNW,292,0.0,-999.0,98,-99.99,,,0.00,Acu-Link.com,2014-07-24 04:23:00,
2014-07-24 00:38:00,60.3,59.7,29.97,NNW,337,0.0,-999.0,98,-99.99,,,0.00,Acu-Link.com,2014-07-24 04:38:00,
2014-07-24 00:53:00,59.5,59.0,29.98,NW,315,0.0,-999.0,98,-99.99,,,0.00,Acu-Link.com,2014-07-24 04:53:00,
2014-07-24 01:08:00,58.6,58.1,29.98,NW,315,0.0,-999.0,98,-99.99,,,0.00,Acu-Link.com,2014-07-24 05:08:00,
2014-07-24 01:23:00,57.7,57.2,29.98,WNW,292,0.0,-999.0,98,-99.99,,,0.00,Acu-Link.com,2014-07-24 05:23:00,
2014-07-24 01:39:00,57.4,56.8,29.98,NW,315,3.1,-999.0,98,-99.99,,,0.00,Acu-Link.com,2014-07-24 05:39:00,
2014-07-24 01:54:00,56.7,56.1,29.98,WNW,292,2.2,-999.0,98,-99.99,,,0.00,Acu-Link.com,2014-07-24 05:54:00,
2014-07-24 02:09:00,56.1,55.6,29.98,NW,315,2.2,-999.0,98,-99.99,,,0.00,Acu-Link.com,2014-07-24 06:09:00,
2014-07-24 02:24:00,55.8,55.2,29.98,NW,315,2.2,-999.0,98,-99.99,,,0.00,Acu-Link.com,2014-07-24 06:24:00,
2014-07-24 02:39:00,55.2,54.7,29.98,NW,315,1.6,-999.0,98,-99.99,,,0.00,Acu-Link.com,2014-07-24 06:39:00,
2014-07-24 02:55:00,54.9,54.3,29.98,WNW,292,2.7,-999.0,98,-99.99,,,0.00,Acu-Link.com,2014-07-24 06:55:00,
2014-07-24 03:10:00,54.7,54.1,29.97,NW,315,2.2,-999.0,98,-99.99,,,0.00,Acu-Link.com,2014-07-24 07:10:00,
2014-07-24 03:25:00,54.3,53.8,29.97,NW,315,0.0,-999.0,98,-99.99,,,0.00,Acu-Link.com,2014-07-24 07:25:00,
2014-07-24 03:40:00,54.0,53.4,29.97,WNW,292,0.0,-999.0,98,-99.99,,,0.00,Acu-Link.com,2014-07-24 07:40:00,
2014-07-24 03:56:00,53.6,53.0,29.97,NW,315,0.0,-999.0,98,-99.99,,,0.00,Acu-Link.com,2014-07-24 07:56:00,
2014-07-24 04:11:00,53.4,52.9,29.97,NW,315,0.0,-999.0,98,-99.99,,,0.00,Acu-Link.com,2014-07-24 08:11:00,
2014-07-24 04:26:00,53.6,53.0,29.97,NW,315,0.0,-999.0,98,-99.99,,,0.00,Acu-Link.com,2014-07-24 08:26:00,
2014-07-24 04:41:00,53.6,53.0,29.97,NW,315,0.0,-999.0,98,-99.99,,,0.00,Acu-Link.com,2014-07-24 08:41:00,
2014-07-24 04:56:00,53.8,53.2,29.97,NNW,337,0.0,-999.0,98,-99.99,,,0.00,Acu-Link.com,2014-07-24 08:56:00,
2014-07-24 05:12:00,53.8,53.2,29.97,NW,315,0.0,-999.0,98,-99.99,,,0.00,Acu-Link.com,2014-07-24 09:12:00,
2014-07-24 05:27:00,53.6,53.0,29.98,WNW,292,0.0,-999.0,98,-99.99,,,0.00,Acu-Link.com,2014-07-24 09:27:00,
2014-07-24 05:42:00,53.6,53.0,29.98,NNW,337,0.0,-999.0,98,-99.99,,,0.00,Acu-Link.com,2014-07-24 09:42:00,
2014-07-24 05:57:00,53.6,53.0,29.98,NNW,337,0.0,-999.0,98,-99.99,,,0.00,Acu-Link.com,2014-07-24 09:57:00,
2014-07-24 06:12:00,53.6,53.0,29.99,WNW,292,0.0,-999.0,98,-99.99,,,0.00,Acu-Link.com,2014-07-24 10:12:00,
2014-07-24 06:28:00,53.4,52.9,30.00,WNW,292,0.0,-999.0,98,-99.99,,,0.00,Acu-Link.com,2014-07-24 10:28:00,
2014-07-24 06:43:00,53.4,52.9,29.99,NW,315,0.0,-999.0,98,-99.99,,,0.00,Acu-Link.com,2014-07-24 10:43:00,
2014-07-24 06:58:00,53.8,53.2,30.00,NNW,337,0.0,-999.0,98,-99.99,,,0.00,Acu-Link.com,2014-07-24 10:58:00,
2014-07-24 07:13:00,54.3,53.8,30.01,NW,315,3.1,-999.0,98,-99.99,,,0.00,Acu-Link.com,2014-07-24 11:13:00,
2014-07-24 07:28:00,55.2,54.7,30.01,NW,315,2.7,-999.0,98,-99.99,,,0.00,Acu-Link.com,2014-07-24 11:28:00,
2014-07-24 07:44:00,56.3,55.7,30.01,WNW,292,5.1,-999.0,98,-99.99,,,0.00,Acu-Link.com,2014-07-24 11:44:00,
2014-07-24 07:59:00,57.4,56.8,30.01,NW,315,4.7,-999.0,98,-99.99,,,0.00,Acu-Link.com,2014-07-24 11:59:00,
2014-07-24 08:14:00,58.8,58.3,30.01,NNE,22,0.0,-999.0,98,-99.99,,,0.00,Acu-Link.com,2014-07-24 12:14:00,
2014-07-24 08:29:00,60.8,60.2,30.01,West,270,3.8,-999.0,98,-99.99,,,0.00,Acu-Link.com,2014-07-24 12:29:00,
2014-07-24 08:44:00,64.6,64.0,30.02,NNE,22,1.6,-999.0,98,-99.99,,,0.00,Acu-Link.com,2014-07-24 12:44:00,
2014-07-24 09:00:00,65.7,65.1,30.02,NW,315,3.1,-999.0,98,-99.99,,,0.00,Acu-Link.com,2014-07-24 13:00:00,
2014-07-24 09:15:00,69.6,69.0,30.02,NNE,22,3.1,-999.0,98,-99.99,,,0.00,Acu-Link.com,2014-07-24 13:15:00,
2014-07-24 09:30:00,71.8,67.7,30.02,NNE,22,3.1,-999.0,87,-99.99,,,0.00,Acu-Link.com,2014-07-24 13:30:00,
2014-07-24 09:45:00,72.7,67.6,30.02,NNW,337,2.7,-999.0,84,-99.99,,,0.00,Acu-Link.com,2014-07-24 13:45:00,
2014-07-24 10:01:00,72.0,67.5,30.02,WNW,292,3.8,-999.0,86,-99.99,,,0.00,Acu-Link.com,2014-07-24 14:01:00,
2014-07-24 10:16:00,73.2,65.9,30.02,NW,315,3.1,-999.0,78,-99.99,,,0.00,Acu-Link.com,2014-07-24 14:16:00,
2014-07-24 10:31:00,70.5,66.8,30.02,East,90,3.8,-999.0,88,-99.99,,,0.00,Acu-Link.com,2014-07-24 14:31:00,
2014-07-24 10:46:00,70.9,63.3,30.02,East,90,0.0,-999.0,77,-99.99,,,0.00,Acu-Link.com,2014-07-24 14:46:00,
2014-07-24 11:01:00,71.2,64.7,30.02,ENE,67,5.1,-999.0,80,-99.99,,,0.00,Acu-Link.com,2014-07-24 15:01:00,
2014-07-24 11:17:00,72.1,65.6,30.02,NE,45,2.7,-999.0,80,-99.99,,,0.00,Acu-Link.com,2014-07-24 15:17:00,
2014-07-24 11:32:00,70.7,63.5,30.02,NNE,22,3.1,-999.0,78,-99.99,,,0.00,Acu-Link.com,2014-07-24 15:32:00,
2014-07-24 11:47:00,69.3,61.4,30.01,NNE,22,2.2,-999.0,76,-99.99,,,0.00,Acu-Link.com,2014-07-24 15:47:00,
2014-07-24 12:02:00,70.2,61.9,30.02,WNW,292,6.7,-999.0,75,-99.99,,,0.00,Acu-Link.com,2014-07-24 16:02:00,
2014-07-24 12:17:00,69.6,62.1,30.01,NNE,22,4.7,-999.0,77,-99.99,,,0.00,Acu-Link.com,2014-07-24 16:17:00,
2014-07-24 12:32:00,71.2,63.6,30.02,NNE,22,2.7,-999.0,77,-99.99,,,0.00,Acu-Link.com,2014-07-24 16:32:00,
2014-07-24 12:48:00,69.3,60.6,30.01,NW,315,3.1,-999.0,74,-99.99,,,0.00,Acu-Link.com,2014-07-24 16:48:00,
2014-07-24 13:03:00,69.8,62.6,30.01,SW,225,2.2,-999.0,78,-99.99,,,0.00,Acu-Link.com,2014-07-24 17:03:00,
2014-07-24 13:18:00,72.9,62.9,30.00,ENE,67,4.3,-999.0,71,-99.99,,,0.00,Acu-Link.com,2014-07-24 17:18:00,
2014-07-24 13:33:00,70.9,62.2,30.00,NW,315,3.1,-999.0,74,-99.99,,,0.00,Acu-Link.com,2014-07-24 17:33:00,
2014-07-24 13:48:00,71.1,62.3,30.00,WNW,292,2.7,-999.0,74,-99.99,,,0.00,Acu-Link.com,2014-07-24 17:48:00,
2014-07-24 14:04:00,74.1,63.3,30.00,ESE,112,6.7,-999.0,69,-99.99,,,0.00,Acu-Link.com,2014-07-24 18:04:00,
2014-07-24 14:19:00,73.2,63.2,30.00,North,0,2.7,-999.0,71,-99.99,,,0.00,Acu-Link.com,2014-07-24 18:19:00,
2014-07-24 14:34:00,74.5,62.8,29.99,ESE,112,5.8,-999.0,67,-99.99,,,0.00,Acu-Link.com,2014-07-24 18:34:00,
2014-07-24 14:49:00,71.8,63.0,29.98,SSW,202,0.0,-999.0,74,-99.99,,,0.00,Acu-Link.com,2014-07-24 18:49:00,
2014-07-24 15:05:00,74.3,63.9,29.98,ESE,112,5.1,-999.0,70,-99.99,,,0.00,Acu-Link.com,2014-07-24 19:05:00,